Weather reports worldwide

Advertisment
Cardiff, Bute Park, United Kingdom (99160): temperature & dewpoint: 19.05.2019 07:00:00 - 25.05.2019 07:00:00 (BST)Cardiff, Bute Park, United Kingdom (99160): temperature -20cm & temperature -100cm: 19.05.2019 07:00:00 - 25.05.2019 07:00:00 (BST)Cardiff, Bute Park, United Kingdom (99160): precipitation: 19.05.2019 07:00:00 - 25.05.2019 07:00:00 (BST)
Date & Time tt [°C] td [°C] tt -20cm [°C] tt -100cm [°C] rr [mm]
25.05.2019 07:00:00 - - - - -
25.05.2019 06:00:00 9,2 8,8 - - 0,0
25.05.2019 05:00:00 9,7 9,2 - - 0,0
25.05.2019 04:00:00 10,7 10,1 - - 0,0
25.05.2019 03:00:00 11,6 11,0 - - 0,0
25.05.2019 02:00:00 12,2 11,6 - - 0,0
25.05.2019 01:00:00 12,5 11,5 - - 0,0
25.05.2019 00:00:00 13,0 11,9 - - 0,0
24.05.2019 23:00:00 13,2 11,4 - - 0,0
24.05.2019 22:00:00 14,6 11,5 - - 0,0
24.05.2019 21:00:00 15,8 11,7 - - 0,0
24.05.2019 20:00:00 16,1 11,6 - - 0,0
24.05.2019 19:00:00 16,5 12,6 - - 0,0
24.05.2019 18:00:00 16,7 12,2 - - 0,0
24.05.2019 17:00:00 16,6 12,3 - - 0,0
24.05.2019 16:00:00 17,9 12,1 - - 0,0
24.05.2019 15:00:00 18,0 12,5 - - 0,0
24.05.2019 14:00:00 19,0 12,4 - - 0,0
24.05.2019 13:00:00 17,9 11,4 - - 0,0
24.05.2019 12:00:00 20,2 11,8 - - 0,0
24.05.2019 11:00:00 17,8 10,7 - - 0,0
24.05.2019 10:00:00 17,3 10,9 15,2 12,7 0,0
24.05.2019 09:00:00 15,8 10,4 - - 0,0
24.05.2019 08:00:00 14,2 9,6 - - 0,0
24.05.2019 07:00:00 10,9 10,5 - - 0,0
24.05.2019 06:00:00 8,0 7,5 - - 0,0
24.05.2019 05:00:00 8,0 7,3 - - 0,0
24.05.2019 04:00:00 8,3 7,3 - - 0,0
24.05.2019 03:00:00 9,0 7,4 - - 0,0
24.05.2019 02:00:00 10,1 7,5 - - 0,0
24.05.2019 01:00:00 11,7 8,1 - - 0,0
24.05.2019 00:00:00 12,8 8,2 - - 0,0
23.05.2019 23:00:00 12,8 7,8 - - 0,0
23.05.2019 22:00:00 14,2 7,7 - - 0,0
23.05.2019 21:00:00 14,4 9,9 - - 0,0
23.05.2019 20:00:00 14,9 10,2 - - 0,0
23.05.2019 19:00:00 16,5 10,4 - - 0,0
23.05.2019 18:00:00 16,8 9,0 - - 0,0
23.05.2019 17:00:00 19,4 7,5 - - 0,0
23.05.2019 16:00:00 20,4 7,0 - - 0,0
23.05.2019 15:00:00 20,5 7,7 - - 0,0
23.05.2019 14:00:00 19,1 6,2 - - 0,0
23.05.2019 13:00:00 20,6 7,2 - - 0,0
23.05.2019 12:00:00 18,4 6,5 - - 0,0
23.05.2019 11:00:00 16,9 6,3 - - 0,0
23.05.2019 10:00:00 15,7 8,5 14,7 12,5 0,0
23.05.2019 09:00:00 14,0 9,3 - - 0,0
23.05.2019 08:00:00 12,5 8,5 - - 0,0
23.05.2019 07:00:00 8,2 7,1 - - 0,0
23.05.2019 06:00:00 6,6 5,8 - - 0,0
23.05.2019 05:00:00 6,7 5,7 - - 0,0
23.05.2019 04:00:00 7,6 6,6 - - 0,0
23.05.2019 03:00:00 8,3 7,0 - - 0,0
23.05.2019 02:00:00 9,2 7,4 - - 0,0
23.05.2019 01:00:00 9,8 7,3 - - 0,0
23.05.2019 00:00:00 10,2 7,5 - - 0,0
22.05.2019 23:00:00 11,6 8,1 - - 0,0
22.05.2019 22:00:00 12,6 7,9 - - 0,0
22.05.2019 21:00:00 14,5 7,1 - - 0,0
22.05.2019 20:00:00 16,2 5,7 - - 0,0
22.05.2019 19:00:00 18,7 7,1 - - 0,0
22.05.2019 18:00:00 19,6 5,9 - - 0,0
22.05.2019 17:00:00 20,3 6,4 - - 0,0
22.05.2019 16:00:00 20,5 6,3 - - 0,0
22.05.2019 15:00:00 20,3 6,4 - - 0,0
22.05.2019 14:00:00 19,3 5,3 - - 0,0
22.05.2019 13:00:00 19,6 5,3 - - 0,0
22.05.2019 12:00:00 19,0 6,0 - - 0,0
22.05.2019 11:00:00 17,5 5,2 - - 0,0
22.05.2019 10:00:00 16,4 4,8 14,4 12,2 0,0
22.05.2019 09:00:00 14,6 6,8 - - 0,0
22.05.2019 08:00:00 11,3 6,6 - - 0,0
22.05.2019 07:00:00 8,5 6,1 - - 0,0
22.05.2019 06:00:00 5,9 4,6 - - 0,0
22.05.2019 05:00:00 6,3 4,8 - - 0,0
22.05.2019 04:00:00 6,7 4,8 - - 0,0
22.05.2019 03:00:00 7,3 4,8 - - 0,0
22.05.2019 02:00:00 8,0 4,8 - - 0,0
22.05.2019 01:00:00 8,8 5,0 - - 0,0
22.05.2019 00:00:00 9,7 4,6 - - 0,0
21.05.2019 23:00:00 10,9 4,3 - - 0,0
21.05.2019 22:00:00 12,8 3,9 - - 0,0
21.05.2019 21:00:00 15,4 2,6 - - 0,0
21.05.2019 20:00:00 16,9 2,5 - - 0,0
21.05.2019 19:00:00 18,1 4,6 - - 0,0
21.05.2019 18:00:00 18,8 7,7 - - 0,0
21.05.2019 17:00:00 19,4 8,2 - - 0,0
21.05.2019 16:00:00 19,6 7,8 - - 0,0
21.05.2019 15:00:00 20,1 8,5 - - 0,0
21.05.2019 14:00:00 20,0 8,8 - - 0,0
21.05.2019 13:00:00 18,1 8,5 - - 0,0
21.05.2019 12:00:00 17,0 8,6 - - 0,0
21.05.2019 11:00:00 16,3 7,1 - - 0,0
21.05.2019 10:00:00 16,9 6,8 14,0 12,2 0,0
21.05.2019 09:00:00 15,0 6,5 - - 0,0
21.05.2019 08:00:00 12,9 8,4 - - 0,0
21.05.2019 07:00:00 8,3 8,2 - - 0,0
21.05.2019 06:00:00 6,2 5,8 - - 0,0
21.05.2019 05:00:00 6,2 5,7 - - 0,0
21.05.2019 04:00:00 6,6 5,9 - - 0,0
21.05.2019 03:00:00 7,2 6,3 - - 0,0
21.05.2019 02:00:00 7,9 6,8 - - 0,0
21.05.2019 01:00:00 8,4 6,5 - - 0,0
21.05.2019 00:00:00 9,7 6,7 - - 0,0
20.05.2019 23:00:00 11,5 6,8 - - 0,0
20.05.2019 22:00:00 14,3 6,9 - - 0,0
20.05.2019 21:00:00 14,4 8,9 - - 0,0
20.05.2019 20:00:00 16,7 8,4 - - 0,0
20.05.2019 19:00:00 16,4 8,6 - - 0,0
20.05.2019 18:00:00 17,0 7,3 - - 0,0
20.05.2019 17:00:00 18,9 8,6 - - 0,0
20.05.2019 16:00:00 19,8 9,0 - - 0,0
20.05.2019 15:00:00 18,8 8,5 - - 0,0
20.05.2019 14:00:00 17,6 9,1 - - 0,0
20.05.2019 13:00:00 15,8 9,0 - - 0,0
20.05.2019 12:00:00 17,4 9,1 - - 0,0
20.05.2019 11:00:00 17,1 8,2 - - 0,0
20.05.2019 10:00:00 14,5 8,1 13,7 12,0 0,0
20.05.2019 09:00:00 13,6 7,8 - - 0,0
20.05.2019 08:00:00 11,7 9,4 - - 0,0
20.05.2019 07:00:00 9,6 9,3 - - 0,0
20.05.2019 06:00:00 8,4 8,0 - - 0,0
20.05.2019 05:00:00 8,4 7,9 - - 0,0
20.05.2019 04:00:00 8,9 7,8 - - 0,0
20.05.2019 03:00:00 10,4 9,1 - - 0,0
20.05.2019 02:00:00 10,7 9,1 - - 0,0
20.05.2019 01:00:00 11,9 9,6 - - 0,0
20.05.2019 00:00:00 12,3 9,5 - - 0,0
19.05.2019 23:00:00 13,4 9,0 - - 0,0
19.05.2019 22:00:00 14,1 8,7 - - 0,0
19.05.2019 21:00:00 14,3 10,1 - - 0,0
19.05.2019 20:00:00 14,7 10,1 - - 0,0
19.05.2019 19:00:00 15,6 10,0 - - 0,0
19.05.2019 18:00:00 16,4 8,0 - - 0,0
19.05.2019 17:00:00 16,1 7,3 - - 0,0
19.05.2019 16:00:00 17,1 10,9 - - 0,0
19.05.2019 15:00:00 15,8 10,5 - - 0,0
19.05.2019 14:00:00 15,7 10,1 - - 0,0
19.05.2019 13:00:00 15,6 9,6 - - 0,0
19.05.2019 12:00:00 16,0 9,1 - - 0,0
19.05.2019 11:00:00 16,8 8,8 - - 0,0
19.05.2019 10:00:00 15,0 9,2 13,4 11,9 0,0
19.05.2019 09:00:00 13,4 8,7 - - 0,0
19.05.2019 08:00:00 11,8 8,1 - - 0,0
19.05.2019 07:00:00 10,8 8,0 - - 0,0

tt = temperature
td = dewpoint
tt -20cm = temperature -20cm
tt -100cm = temperature -100cm
rr = precipitation

Next stations